Location: Saratoga Springs
(43.0831°N, 73.7850°W)
Time: 11:20:55
(UTC-04:00)

Vanguard 1 Rocket - Pass Details

Date: 26 April 2024
Orbit: 651 x 4220 km, 34.3° (Epoch: 19 May)

Event Time Altitude Azimuth Distance (km) Brightness Sun altitude
Rises 21:55:33 0° 263° (W) 3,329 10.9 -20.0°
Reaches altitude 10° 21:57:54 10° 251° (WSW) 2,621 10.1 -20.3°
Maximum altitude 22:03:10 29° 192° (SSW) 2,127 9.0 -21.0°
Enters shadow 22:05:15 26° 169° (S) 2,476 9.1 -21.3°
